星链-31646 (STARLINK-31646 )

导读

STARLINK-31646是美国星链计划低轨卫星星座的成员,于2024年3月19日发射入轨,承担全球卫星互联网服务组网任务。作为星链批量部署的卫星之一,它依托近地轨道优势,为偏远地区、海上和航空场景提供宽带通信支持,助力美国构建全球覆盖的低轨通信网络,延续星链星座的扩容进程。

基本信息
目录编号:
59265
目录名称:
STARLINK-31646
国际标识:
2024-050M
轨道中心:
EARTH
卫星名称:
星链-31646
卫星全名:
星链-31646 (STARLINK-31646 )
卫星状态:
在轨 (已飞行821 天)
发射日期:
2024-03-19 UTC
国别 :
美国 (US)
星等 :
--
轨道信息
数据来源 国际轨道数据 AOE轨道数据
星历时间 2026-06-16T08:51:08+0800
2天前
查看轨道信息
2026-06-14T01:00:00+0800
4天前
查看轨道信息
半长轴 6846.343km 6853.375km
偏心率 0.0001834 0.0001502
轨道倾角 53.160° 53.156°
近地点辐角 63.567° 117.039°
升交点赤经 84.336° 95.182°
平近点角 296.552° 357.926°
近地点 466.95km 474.208km
远地点 469.462km 476.268km
周期 93.961分钟 94.106分钟
每日圈数 15.325506 15.301926
详细信息
固有亮度:
5
最大亮度:
0.3
卫星平台:
Starlink v2.0 mini
覆盖范围:
全球
运营商:
太空探索技术公司
运营商所在国:
美国
制造商(研发单位):
太空探索技术公司
制造商所在国:
美国
使用方式:
暂无
卫星简介
星链(Starlink)计划是由太空探索技术公司(SpaceX)提出的一个巨型低轨卫星互联网星座项目,计划在2019年至2024年间在太空搭建由约1.2万颗卫星组成的“星链”网络,其中1584颗将部署在地球上空550千米处的近地轨道,并从2020年开始工作。该卫星仍在工作。
2D轨道图
3D轨道图
轨道高度分析图
轨道倾角分析图
轨道综合分析图
查看轨道综合分析图